TimeEDT,TemperatureF,Dew PointF,Humidity,Sea Level PressureIn,VisibilityMPH,Wind Direction,Wind SpeedMPH,Gust SpeedMPH,PrecipitationIn,Events,Conditions,WindDirDegrees,DateUTC
12:55 AM,45.0,24.6,45,29.88,10.0,WNW,12.7,-,N/A,,Clear,290,2012-10-30 04:55:00
1:55 AM,43.9,25.0,47,29.86,10.0,WNW,11.5,-,N/A,,Clear,290,2012-10-30 05:55:00
2:55 AM,43.2,25.5,50,29.85,10.0,WNW,10.4,-,N/A,,Clear,290,2012-10-30 06:55:00
3:55 AM,41.0,26.4,56,29.84,10.0,WNW,6.9,-,N/A,,Clear,290,2012-10-30 07:55:00
4:55 AM,38.5,26.8,63,29.83,10.0,WNW,5.8,-,N/A,,Clear,290,2012-10-30 08:55:00
5:55 AM,40.5,27.7,60,29.83,10.0,Variable,4.6,-,N/A,,Clear,0,2012-10-30 09:55:00
6:55 AM,40.6,28.0,61,29.84,10.0,West,11.5,18.4,N/A,,Clear,280,2012-10-30 10:55:00
7:55 AM,40.5,28.6,63,29.85,10.0,WNW,9.2,-,N/A,,Clear,290,2012-10-30 11:55:00
8:55 AM,41.5,29.5,62,29.87,10.0,WNW,10.4,-,N/A,,Clear,290,2012-10-30 12:55:00
9:55 AM,45.7,29.3,53,29.88,10.0,WNW,17.3,26.5,N/A,,Clear,290,2012-10-30 13:55:00
10:55 AM,49.6,28.0,43,29.88,10.0,WNW,17.3,25.3,N/A,,Clear,290,2012-10-30 14:55:00
11:55 AM,55.2,24.4,30,29.87,10.0,WNW,20.7,28.8,N/A,,Clear,300,2012-10-30 15:55:00
12:55 PM,58.6,18.0,21,29.85,10.0,NW,23.0,33.4,N/A,,Clear,310,2012-10-30 16:55:00
1:55 PM,60.3,21.2,22,29.82,10.0,WNW,21.9,26.5,N/A,,Clear,300,2012-10-30 17:55:00
2:55 PM,61.5,22.8,23,29.81,10.0,WNW,19.6,29.9,N/A,,Clear,290,2012-10-30 18:55:00
3:55 PM,62.8,23.4,22,29.79,10.0,WNW,19.6,29.9,N/A,,Clear,300,2012-10-30 19:55:00
4:55 PM,62.2,22.1,21,29.79,10.0,NW,20.7,32.2,N/A,,Clear,310,2012-10-30 20:55:00
5:55 PM,61.0,22.8,23,29.81,10.0,NW,23.0,36.8,N/A,,Clear,310,2012-10-30 21:55:00
6:55 PM,57.4,25.2,29,29.82,10.0,WNW,12.7,20.7,N/A,,Clear,300,2012-10-30 22:55:00
7:55 PM,53.4,25.3,34,29.86,10.0,West,5.8,-,N/A,,Clear,280,2012-10-30 23:55:00
8:55 PM,51.1,26.4,38,29.88,10.0,West,5.8,-,N/A,,Clear,280,2012-10-31 00:55:00
9:55 PM,48.6,27.9,45,29.90,10.0,WNW,5.8,-,N/A,,Clear,290,2012-10-31 01:55:00
10:55 PM,47.3,29.5,50,29.91,10.0,WNW,6.9,-,N/A,,Clear,290,2012-10-31 02:55:00
11:55 PM,44.1,29.7,57,29.91,10.0,Calm,Calm,-,N/A,,Clear,0,2012-10-31 03:55:00